This demonstration page uses our WeatherBlox Daily Observations layout. Learn more.

Left ArrowRight Arrow

Hourly Observations for November 7, 2022

Temp ( °F °C ) Dew Point ( °F °C ) Humidity (%) Winds ( mph kmh ) Pressure ( in mb ) Visibility ( mi km ) Precip ( " mm )
12:56 am 00:56 Cloudy 38 3.3 21 -6.1 50 50 ENE 5 7 30.37 1029 10 16 0.00 0.00
1:56 am 01:56 Mostly Cloudy 38 3.3 24 -4.4 57 57 E 5 7 30.38 1029 10 16 0.00 0.00
2:56 am 02:56 Clear 38 3.3 24 -4.4 57 57 NE 5 7 30.40 1029 10 16 0.00 0.00
3:56 am 03:56 Clear 38 3.3 23 -5 54 54 ENE 8 13 30.39 1029 10 16 0.00 0.00
4:56 am 04:56 Clear 37 2.8 22 -5.6 54 54 E 8 13 30.41 1030 10 16 0.00 0.00
5:56 am 05:56 Clear 31 -0.6 22 -5.6 69 69 E 8 13 30.45 1031 10 16 0.00 0.00
6:56 am 06:56 Clear 31 -0.6 21 -6.1 66 66 E 10 17 30.47 1032 10 16 0.00 0.00
7:56 am 07:56 Sunny 33 0.6 20 -6.7 58 58 E 12 19 30.48 1032 10 16 0.00 0.00
8:56 am 08:56 Sunny 38 3.3 18 -7.8 44 44 E 20 31 30.49 1032 10 16 0.00 0.00
9:56 am 09:56 Sunny 43 6.1 18 -7.8 36 36 E 18 30 30.48 1032 10 16 0.00 0.00
10:56 am 10:56 Mostly Sunny 46 7.8 17 -8.3 31 31 ESE 20 31 30.46 1032 10 16 0.00 0.00
11:56 am 11:56 Cloudy 47 8.3 16 -8.9 28 28 ESE 23 37 30.43 1030 10 16 0.00 0.00
12:56 pm 12:56 Cloudy 48 8.9 15 -9.4 26 26 ESE 22 35 30.39 1029 10 16 0.00 0.00
1:56 pm 13:56 Cloudy 49 9.4 15 -9.4 25 25 ESE 22 35 30.36 1028 10 16 0.00 0.00
2:56 pm 14:56 Partly Cloudy 52 11.1 14 -10 22 22 ESE 21 33 30.31 1026 10 16 0.00 0.00
3:56 pm 15:56 Sunny 52 11.1 11 -11.7 19 19 SE 22 35 30.28 1025 10 16 0.00 0.00
4:56 pm 16:56 Sunny 51 10.6 14 -10 22 22 ESE 21 33 30.28 1026 10 16 0.00 0.00
5:56 pm 17:56 Clear 47 8.3 17 -8.3 30 30 ESE 16 26 30.27 1025 10 16 0.00 0.00
6:56 pm 18:56 Clear 46 7.8 18 -7.8 32 32 ESE 18 30 30.27 1025 10 16 0.00 0.00
7:56 pm 19:56 Clear 44 6.7 19 -7.2 36 36 ESE 15 24 30.28 1025 10 16 0.00 0.00
8:56 pm 20:56 Clear 43 6.1 20 -6.7 39 39 ESE 14 22 30.28 1025 10 16 0.00 0.00
9:56 pm 21:56 Cloudy 42 5.6 21 -6.1 43 43 ESE 14 22 30.28 1025 10 16 0.00 0.00
10:27 pm 22:27 Cloudy 41 5 21 -6 45 45 ESE 12 19 30.30 1026 10 16 0.00 0.00
10:56 pm 22:56 Partly Cloudy 40 4.4 22 -5.6 48 48 ESE 10 17 30.27 1025 10 16 0.00 0.00
11:17 pm 23:17 Mostly Cloudy 43 6 25 -4 49 49 SE 9 15 30.28 1025 10 16 0.00 0.00
11:56 pm 23:56 Cloudy 44 6.7 24 -4.4 45 45 SE 14 22 30.25 1024 10 16 0.00 0.00

Powered by AerisWeather